Location: Peebles
(55.6412°N, 3.1714°W)
Time: 15:39:58
(UTC+01:00)

Tiros 1 - Visible Passes

Search period start: 28 September 2023 00:00
Search period end: 08 October 2023 00:00
Orbit: 626 x 660 km, 48.4° (Epoch: 27 September)

Date Brightness Start Highest point End Pass type
(mag) Time Alt. Az. Time Alt. Az. Time Alt. Az.
02 Oct 9.6 05:55:26 10° S 05:58:10 15° SSE 06:00:55 10° ESE visible
03 Oct 9.1 06:18:48 10° SSW 06:22:26 23° SSE 06:26:07 10° ESE visible
04 Oct 9.5 05:03:21 10° S 05:05:43 14° SE 05:08:12 10° ESE visible
05 Oct 9.0 05:27:15 13° SSW 05:29:57 21° SSE 05:33:31 10° ESE visible
06 Oct 9.5 04:13:29 13° SE 04:13:29 13° SE 04:15:26 10° ESE visible
06 Oct 8.6 05:51:04 14° SW 05:54:19 28° SSE 05:58:20 10° ESE visible
07 Oct 8.9 04:37:16 20° SSE 04:37:28 20° SSE 04:40:53 10° ESE visible
07 Oct 8.3 06:14:51 12° SW 06:18:45 33° S 06:22:59 10° ESE visible
